Wind_Speed
46 45 43 45 46 47 42 42 42 40 38 32 30 25 24 25 26 22 19 17 15 14 14 15 19 18 10 12 14 15 15 13 13 16 21 24 34 33 30 30 22 24 21 18 10 4 4
47 43 42 43 46 47 43 43 42 40 35 29 27 23 24 26 20 22 20 18 16 15 17 13 15 14 9 13 12 14 14 12 13 20 27 32 31 27 25 23 20 16 11 7 5 5 0
48 45 42 43 46 47 45 43 41 39 33 29 26 23 22 23 21 21 17 17 16 14 14 14 8 5 5 11 13 14 13 17 17 21 31 30 26 25 23 20 17 18 13 11 6 9 7
50 49 45 44 44 46 45 44 40 38 32 31 25 24 24 22 22 18 18 19 14 10 12 11 8 8 12 12 13 15 23 23 21 31 30 31 26 22 17 16 6 9 6 5 10 10 14
51 47 44 44 44 43 44 44 38 36 29 31 23 23 18 22 17 15 17 15 11 11 11 11 9 6 11 13 17 23 29 26 31 28 23 24 24 23 11 7 8 12 12 10 11 16 14
55 49 46 44 43 42 44 43 36 33 29 27 20 21 21 19 17 15 14 12 10 9 11 9 10 14 16 19 18 26 28 30 33 29 24 15 19 16 15 10 11 10 15 12 11 13 13
58 52 47 44 43 43 44 41 35 29 28 23 20 19 19 15 13 14 13 12 12 13 12 11 16 20 20 20 23 24 34 34 34 28 21 19 16 13 8 12 11 20 16 15 14 17 17
61 54 50 45 43 43 42 37 29 25 25 21 21 16 16 12 14 14 15 13 13 14 15 15 17 17 15 17 22 27 34 35 33 25 19 14 22 17 16 20 20 23 20 16 19 17 13
67 59 54 48 44 45 42 35 29 22 22 19 18 17 17 13 16 14 11 13 14 16 21 21 19 19 18 16 18 21 28 36 33 29 26 16 21 24 26 25 19 19 23 18 11 8 8
71 63 56 50 47 46 42 33 27 20 22 18 17 21 15 14 12 12 15 19 19 20 20 19 20 18 18 18 19 20 23 33 29 27 25 17 21 23 25 21 21 21 19 19 12 14 13
72 65 60 53 50 48 42 32 26 21 23 17 17 24 14 11 14 18 22 22 22 23 21 21 20 19 20 20 20 21 22 22 24 22 19 16 20 23 21 21 19 18 16 13 15 16 18
74 67 62 56 52 49 43 30 24 23 23 16 18 23 16 18 19 24 25 26 25 24 19 21 21 19 19 19 19 18 18 18 16 15 17 18 15 18 21 17 14 13 15 14 16 18 21
76 69 65 60 54 49 43 33 25 27 22 16 24 23 23 23 28 28 28 27 26 23 21 20 19 18 17 14 13 12 12 12 14 15 15 17 15 16 17 16 15 15 15 16 19 20 21
74 70 66 62 55 49 43 33 29 29 22 19 28 29 30 31 31 29 27 26 24 20 21 20 18 16 14 14 11 11 11 13 13 13 16 17 17 17 17 17 17 16 16 17 18 20 20
71 74 70 62 56 49 43 35 32 31 26 23 33 35 36 35 32 30 28 25 24 21 21 19 17 15 12 12 11 11 11 12 13 15 17 16 14 13 13 14 14 14 14 12 12 14 15
77 80 73 66 57 51 44 37 37 33 28 30 39 40 41 36 34 32 29 26 25 23 20 16 14 13 12 13 14 14 14 13 13 13 15 16 14 12 12 11 11 11 9 8 7 8 6
81 80 74 66 60 53 45 41 40 36 30 39 44 45 42 38 36 34 30 29 23 20 15 12 11 12 14 16 17 17 16 14 14 15 17 16 15 14 13 12 11 9 7 6 4 4 4
79 78 73 68 62 54 48 44 42 39 33 45 48 47 44 40 39 36 34 31 23 18 14 8 5 7 10 10 11 14 16 15 14 16 16 15 17 15 14 13 11 8 7 7 7 7 8
84 79 71 65 58 55 50 45 44 42 37 47 51 50 46 42 41 39 37 33 23 18 12 5 4 5 8 10 13 15 16 16 17 18 18 17 18 18 16 14 12 9 8 9 10 11 11
79 72 65 62 57 53 50 47 46 42 43 50 56 53 49 43 42 40 37 32 25 19 12 7 5 4 8 11 14 16 16 18 19 19 18 19 17 17 15 16 16 13 13 14 16 17 17
70 66 62 57 51 50 48 46 47 42 47 52 58 53 47 43 43 42 39 32 26 20 14 8 4 4 5 9 12 15 17 19 19 19 19 20 19 19 18 18 18 18 19 19 21 21 22
67 63 58 52 48 47 45 44 46 43 49 54 59 52 48 44 43 42 40 34 27 21 16 9 6 6 5 7 10 13 17 20 20 20 21 22 21 22 22 21 21 22 22 23 25 27 28
65 60 54 48 47 46 43 45 45 42 50 55 59 54 48 46 45 45 40 33 27 24 18 14 10 9 8 7 9 12 16 20 21 22 23 24 25 26 27 27 28 27 24 28 29 31 32
61 55 49 46 44 43 42 43 43 41 51 54 58 54 49 47 47 43 39 35 32 28 22 19 15 12 12 11 12 15 16 19 21 23 23 25 28 31 32 31 35 28 29 32 35 36 34
54 50 44 42 39 41 39 41 40 41 52 55 57 55 51 49 46 44 41 36 33 30 25 22 19 18 17 16 15 15 18 19 19 21 24 27 31 33 36 36 38 37 34 37 39 40 37
49 45 41 38 38 38 39 38 37 41 52 57 56 55 52 49 46 44 42 37 35 32 28 25 25 22 21 20 18 17 17 19 23 23 23 26 30 34 37 40 43 41 39 41 44 45 43
43 40 37 36 36 37 35 35 36 41 52 56 54 53 52 50 48 46 43 37 36 34 31 30 29 27 24 24 23 21 21 20 21 23 25 29 31 34 37 41 45 43 44 44 47 48 50
39 36 31 32 35 33 34 34 35 40 49 52 50 51 50 49 48 47 43 40 39 37 35 34 32 31 29 29 28 28 27 26 25 25 26 30 34 36 38 42 46 44 46 47 49 49 50
37 33 31 32 31 31 32 28 33 38 42 43 42 51 50 49 48 47 44 42 40 40 39 38 36 33 33 34 33 33 32 31 31 33 32 35 35 39 41 42 44 47 49 50 49 49 49
Wind_Direction
265 267 272 273 275 280 289 295 305 313 313 313 304 286 278 284 283 279 286 264 255 252 256 271 247 260 249 200 199 200 210 210 195 180 162 161 160 165 171 175 176 208 222 232 218 166 68
262 262 265 270 273 278 286 292 301 311 311 308 296 286 282 287 277 276 275 255 250 255 262 251 244 255 246 203 201 198 202 205 184 158 156 153 153 160 173 176 178 176 161 197 187 235 221
259 261 265 266 269 274 283 289 299 309 307 301 286 280 275 293 281 275 251 249 250 257 247 236 248 206 190 201 197 193 191 172 161 158 151 163 158 182 187 190 188 204 209 219 223 239 234
257 258 262 262 266 270 278 286 297 306 307 303 279 280 276 280 287 257 240 250 246 236 239 236 213 207 185 180 204 195 176 167 161 160 168 170 176 174 178 192 177 203 213 253 245 204 187
254 255 258 260 261 267 273 281 293 301 306 298 276 278 269 286 271 237 237 241 236 225 230 218 226 209 196 186 203 187 174 167 160 149 168 179 178 170 165 157 210 201 206 214 189 166 187
252 252 256 256 258 263 269 277 289 295 304 287 274 265 271 279 257 235 226 226 215 212 217 225 199 179 181 181 197 192 171 170 166 169 181 172 185 172 178 201 242 247 175 172 188 185 198
250 249 250 252 253 258 264 274 286 294 299 274 274 260 268 271 233 212 209 215 213 215 205 183 179 168 178 178 190 197 178 176 168 171 175 163 179 195 170 168 195 166 176 185 196 202 198
248 246 245 248 250 254 259 270 280 289 284 264 275 261 252 233 211 223 237 220 211 193 181 164 154 155 170 175 187 198 184 178 177 175 176 210 207 207 204 194 191 186 194 198 217 214 210
243 241 242 242 245 250 255 264 275 278 266 257 259 242 234 235 231 231 212 190 174 166 155 151 152 148 151 160 180 189 193 185 190 192 197 220 203 211 202 195 197 198 214 211 210 230 236
238 236 235 238 240 246 252 257 264 261 256 257 253 224 226 207 231 196 170 156 150 150 150 150 144 151 154 161 170 175 190 197 196 203 216 224 204 194 187 192 198 216 215 204 214 244 264
233 232 230 231 234 240 247 250 248 248 248 254 255 211 195 190 184 166 158 152 150 150 151 146 147 148 150 155 160 170 178 188 200 214 207 194 197 190 194 214 222 224 228 226 243 253 269
227 224 226 224 229 234 240 241 232 237 239 240 222 196 181 176 171 161 156 153 153 152 151 151 152 159 159 162 164 164 167 171 174 184 192 197 209 217 221 220 214 222 234 246 252 260 268
219 217 219 219 222 229 236 229 222 227 228 225 198 182 174 169 161 156 156 160 161 159 157 158 157 160 165 169 173 174 175 187 192 201 204 214 221 213 215 223 225 230 234 244 255 265 277
207 207 210 212 214 223 228 219 214 220 216 212 188 175 171 164 162 163 166 167 166 164 165 160 161 168 170 172 183 194 196 201 206 211 220 223 228 223 224 231 234 240 244 254 261 269 276
203 198 198 204 207 213 217 213 209 214 210 201 183 178 168 168 170 170 173 172 171 174 168 170 175 182 185 192 200 210 217 219 219 220 222 221 223 224 221 225 229 233 238 245 259 269 278
200 192 192 195 199 206 207 208 206 205 204 189 179 179 168 172 176 176 176 177 176 176 178 182 191 211 219 224 232 235 237 235 230 226 223 216 211 216 204 202 208 219 226 247 266 282 288
190 191 189 187 192 197 200 202 203 198 197 184 179 176 172 178 180 180 179 178 181 181 185 192 212 233 239 238 238 239 236 234 231 219 216 211 201 202 205 208 208 213 216 222 234 253 256
188 190 189 186 186 191 194 198 198 194 193 183 181 176 177 183 183 181 182 180 172 175 189 198 222 244 237 227 223 221 220 224 211 202 209 202 200 202 197 203 208 204 211 235 258 271 283
188 191 189 187 183 189 191 193 194 191 188 184 182 178 182 186 185 183 185 186 187 190 201 218 254 243 229 216 216 217 220 219 211 206 206 206 202 198 197 200 209 220 241 266 271 283 289
187 191 186 184 185 186 188 189 190 188 188 185 185 182 185 188 186 187 190 192 196 198 207 239 260 257 234 222 218 218 218 211 207 205 205 206 202 204 211 212 222 234 250 268 276 279 283
183 185 183 183 184 186 187 187 189 187 188 186 186 187 189 188 188 191 194 196 201 203 218 234 285 315 238 228 218 216 210 207 205 210 211 212 212 216 223 226 235 240 253 266 274 278 283
176 179 180 181 185 186 185 187 187 187 188 188 189 189 191 188 191 198 198 200 205 209 220 242 276 295 291 247 227 212 208 205 211 215 217 220 224 228 230 237 244 251 261 270 274 279 284
173 178 179 181 184 187 186 188 186 187 189 189 191 191 191 191 196 201 202 206 208 215 227 246 265 280 288 285 248 229 222 224 224 225 225 227 231 236 239 246 253 256 268 273 277 279 285
173 176 179 183 185 188 186 187 188 188 190 190 193 192 193 196 200 205 208 209 213 220 230 246 264 277 280 284 269 247 241 238 237 238 240 240 242 245 250 253 259 265 268 277 280 283 287
172 175 178 183 187 186 186 188 188 189 193 191 194 195 197 200 203 208 212 215 222 228 237 246 260 269 278 282 281 271 260 256 256 254 254 253 253 256 259 262 267 269 274 276 279 282 291
171 175 179 184 179 184 186 186 188 192 196 193 194 197 200 203 206 211 218 219 227 235 242 252 259 267 275 278 281 282 276 272 263 261 260 260 259 260 264 267 270 273 276 279 283 286 289
172 177 181 186 183 186 183 187 191 193 197 194 195 199 203 207 210 215 220 223 230 237 244 251 258 264 269 275 278 279 275 273 270 269 263 265 266 266 268 272 277 279 280 282 283 286 288
174 177 179 181 181 182 185 190 192 193 198 197 196 203 204 208 214 218 223 227 233 239 245 251 255 262 266 272 276 279 279 280 281 278 273 271 269 270 271 273 277 280 282 282 283 287 289
177 175 177 182 180 183 184 190 193 190 193 183 196 204 209 211 215 221 225 230 235 240 245 251 256 262 267 271 274 275 279 281 282 280 279 278 276 276 276 279 281 283 283 284 287 287 289
Height
5763 5766 5768 5770 5770 5769 5769 5768 5764 5761 5758 5754 5752 5750 5750 5749 5747 5746 5746 5745 5746 5746 5746 5747 5747 5747 5748 5750 5751 5753 5755 5757 5759 5761 5764 5769 5775 5779 5783 5785 5789 5793 5795 5797 5798 5801 5803
5756 5757 5759 5762 5763 5763 5761 5763 5759 5756 5754 5750 5748 5747 5746 5744 5743 5743 5742 5743 5743 5743 5744 5744 5745 5746 5747 5750 5752 5753 5755 5758 5761 5764 5768 5773 5777 5778 5781 5787 5791 5794 5796 5798 5800 5802 5804
5748 5750 5752 5754 5755 5755 5755 5757 5754 5751 5750 5746 5744 5743 5742 5741 5740 5739 5739 5740 5740 5741 5741 5742 5744 5745 5747 5750 5751 5753 5757 5760 5763 5768 5772 5775 5777 5782 5785 5788 5791 5793 5797 5799 5801 5803 5804
5736 5741 5743 5745 5747 5748 5749 5750 5748 5746 5744 5742 5741 5740 5739 5737 5736 5735 5736 5737 5738 5738 5739 5741 5743 5744 5745 5748 5750 5754 5757 5760 5765 5769 5772 5776 5778 5782 5785 5789 5792 5795 5797 5797 5799 5801 5804
5725 5730 5734 5737 5739 5740 5742 5744 5742 5742 5738 5737 5737 5737 5735 5734 5732 5732 5733 5735 5736 5737 5738 5740 5741 5742 5745 5748 5750 5755 5758 5762 5767 5770 5772 5774 5778 5782 5787 5789 5792 5794 5796 5798 5799 5800 5803
5715 5721 5726 5729 5732 5733 5735 5737 5737 5736 5734 5733 5733 5734 5732 5730 5729 5730 5732 5733 5734 5736 5737 5738 5739 5742 5744 5747 5751 5755 5760 5763 5767 5771 5775 5777 5780 5784 5787 5790 5792 5793 5795 5798 5799 5802 5802
5702 5710 5716 5721 5724 5726 5729 5730 5732 5730 5730 5729 5730 5730 5729 5727 5727 5728 5730 5732 5734 5735 5736 5737 5738 5740 5743 5746 5751 5755 5760 5764 5768 5772 5776 5779 5782 5784 5788 5790 5791 5793 5795 5797 5798 5799 5800
5689 5697 5705 5712 5716 5719 5722 5723 5726 5724 5726 5726 5727 5727 5726 5726 5727 5729 5730 5730 5732 5734 5734 5736 5739 5741 5745 5748 5752 5756 5762 5767 5770 5772 5777 5780 5783 5785 5788 5790 5791 5792 5794 5797 5797 5798 5800
5674 5684 5694 5702 5707 5712 5715 5717 5720 5720 5721 5722 5723 5723 5723 5724 5726 5728 5728 5729 5731 5733 5735 5738 5740 5743 5747 5751 5754 5757 5763 5768 5771 5774 5777 5778 5781 5784 5786 5788 5790 5792 5793 5796 5798 5798 5799
5657 5670 5682 5692 5698 5704 5708 5712 5714 5716 5717 5718 5720 5720 5721 5723 5725 5726 5727 5730 5732 5735 5738 5741 5742 5746 5749 5752 5756 5758 5763 5767 5770 5773 5776 5778 5780 5782 5785 5788 5790 5791 5791 5793 5795 5796 5796
5640 5655 5669 5680 5688 5696 5701 5705 5708 5710 5712 5713 5715 5717 5720 5721 5724 5725 5729 5731 5734 5737 5741 5744 5745 5749 5751 5754 5757 5760 5763 5767 5770 5773 5777 5780 5781 5783 5786 5788 5789 5790 5790 5791 5792 5793 5793
5623 5638 5654 5667 5678 5686 5693 5698 5701 5705 5708 5708 5711 5714 5718 5720 5724 5726 5729 5733 5736 5741 5743 5745 5747 5750 5753 5756 5759 5761 5764 5767 5770 5773 5776 5779 5780 5782 5785 5786 5787 5788 5788 5789 5790 5790 5790
5604 5622 5639 5654 5667 5676 5685 5691 5695 5699 5703 5703 5709 5712 5716 5720 5724 5727 5731 5735 5738 5741 5745 5748 5750 5752 5755 5758 5761 5763 5766 5768 5770 5773 5774 5777 5778 5781 5783 5784 5785 5786 5787 5787 5788 5787 5787
5586 5605 5626 5641 5655 5666 5676 5683 5687 5693 5697 5699 5706 5710 5714 5719 5724 5728 5732 5737 5740 5743 5746 5748 5752 5754 5757 5759 5762 5764 5766 5768 5770 5771 5772 5774 5777 5779 5781 5782 5783 5783 5784 5785 5784 5785 5785
5572 5592 5610 5628 5643 5656 5668 5674 5680 5686 5692 5694 5702 5707 5711 5718 5723 5728 5733 5737 5740 5744 5748 5751 5753 5755 5757 5760 5762 5763 5765 5767 5769 5770 5772 5773 5775 5777 5778 5779 5781 5781 5781 5783 5783 5782 5782
5561 5581 5597 5615 5631 5647 5657 5665 5673 5680 5687 5690 5698 5705 5710 5717 5722 5728 5733 5737 5741 5745 5749 5751 5753 5755 5757 5758 5760 5761 5763 5765 5766 5768 5769 5771 5773 5774 5776 5777 5778 5779 5780 5781 5781 5780 5780
5550 5573 5588 5601 5619 5635 5646 5657 5666 5674 5680 5685 5693 5701 5707 5714 5721 5727 5732 5738 5742 5745 5749 5751 5752 5753 5754 5755 5757 5758 5760 5762 5763 5765 5767 5769 5771 5774 5775 5776 5777 5778 5779 5780 5780 5780 5779
5544 5565 5580 5593 5608 5624 5637 5648 5659 5667 5673 5681 5690 5697 5704 5712 5719 5725 5731 5737 5741 5745 5748 5750 5751 5751 5751 5752 5754 5755 5757 5759 5761 5763 5765 5767 5769 5771 5773 5775 5776 5777 5778 5778 5778 5779 5777
5536 5557 5573 5587 5599 5617 5628 5640 5652 5661 5669 5677 5687 5694 5701 5709 5716 5723 5730 5736 5740 5744 5747 5749 5749 5749 5749 5750 5752 5752 5755 5757 5759 5761 5764 5766 5768 5770 5772 5775 5775 5776 5776 5775 5775 5774 5774
5531 5552 5568 5583 5597 5609 5622 5634 5646 5654 5663 5672 5683 5690 5697 5705 5714 5722 5728 5734 5739 5743 5745 5747 5748 5748 5749 5749 5750 5751 5753 5755 5758 5760 5763 5765 5767 5769 5771 5771 5772 5773 5773 5773 5772 5771 5770
5528 5550 5567 5580 5592 5606 5617 5629 5640 5649 5658 5668 5679 5686 5696 5704 5712 5719 5726 5732 5737 5742 5744 5746 5747 5748 5748 5748 5748 5749 5751 5754 5757 5759 5761 5763 5765 5766 5767 5768 5768 5769 5769 5769 5768 5767 5766
5527 5549 5564 5578 5592 5604 5614 5624 5635 5644 5654 5665 5676 5684 5693 5704 5711 5717 5723 5730 5736 5740 5743 5744 5746 5747 5747 5747 5748 5748 5749 5751 5754 5756 5758 5760 5762 5763 5764 5764 5764 5764 5765 5764 5763 5761 5760
5531 5549 5564 5578 5590 5601 5611 5622 5631 5641 5651 5661 5673 5682 5692 5700 5706 5713 5721 5729 5734 5738 5740 5742 5744 5745 5746 5746 5746 5747 5748 5750 5752 5754 5755 5757 5759 5759 5759 5760 5758 5760 5761 5758 5756 5755 5753
5536 5552 5564 5577 5589 5599 5609 5619 5629 5638 5649 5660 5671 5680 5688 5697 5703 5712 5719 5725 5730 5734 5737 5739 5741 5743 5744 5744 5745 5746 5747 5748 5749 5751 5752 5754 5755 5755 5754 5755 5751 5756 5754 5752 5748 5746 5745
5540 5554 5566 5578 5587 5598 5608 5617 5627 5635 5645 5656 5666 5676 5684 5692 5702 5708 5714 5722 5726 5730 5734 5737 5739 5740 5741 5741 5742 5742 5744 5746 5746 5747 5748 5749 5749 5749 5748 5748 5746 5746 5747 5744 5740 5738 5738
5543 5556 5567 5577 5586 5597 5607 5616 5625 5634 5643 5653 5663 5673 5681 5690 5699 5705 5711 5718 5722 5727 5731 5733 5735 5736 5737 5738 5739 5739 5739 5740 5741 5742 5743 5743 5742 5742 5741 5739 5736 5738 5739 5735 5731 5728 5727
5547 5558 5568 5577 5587 5597 5606 5615 5623 5632 5641 5650 5660 5670 5678 5686 5694 5700 5706 5714 5718 5722 5726 5728 5730 5732 5733 5733 5734 5735 5735 5736 5736 5736 5737 5735 5734 5733 5732 5730 5728 5729 5727 5725 5721 5721 5714
5549 5559 5569 5578 5588 5597 5606 5615 5623 5631 5640 5648 5658 5666 5674 5682 5689 5696 5702 5708 5713 5717 5720 5722 5725 5726 5727 5728 5729 5730 5729 5730 5730 5730 5730 5729 5727 5727 5724 5722 5719 5720 5717 5714 5710 5706 5702
5552 5562 5571 5580 5589 5597 5606 5614 5622 5630 5638 5649 5654 5664 5670 5677 5685 5690 5697 5702 5707 5709 5713 5715 5719 5721 5721 5722 5723 5723 5723 5723 5723 5722 5721 5720 5719 5717 5716 5715 5710 5706 5703 5700 5698 5694 5691